DECAYED

CZ-6A DEB, 61140 (Decayed)

Orbit data source: Space-Track

CZ-6A DEB, 61140 was space debris in LEO originally from a launch on Tue, 06 Aug 2024 UTC launched from the Taiyaun Space Center, China (TSC). Debris objects in space refer to the collection of defunct objects orbiting the Earth. Examples of debris include non-operational satellites, rocket bodies, and fragments generated from explosions, collisions, or faulty payload assembly.

Not visible in the next 10 days
Identifier
61140, 2024-140QJ
Orbit
Decayed
Country
Flag of CNCN / PRC
Related business
Manufacturer
SAST
Mission
Decayed spacecraft
Bus & Motor
Unknown
Mass
Unknown
Launch date (UTC)
2024-08-06 (2 years ago)
Launch vehicle
Unknown
Launch site
Taiyaun Space Center, China (TSC)
Object type
Payload
Rocket body
Debris
Shape & HBR
Unknown shape, 0.1 m
Radar Cross Section
Medium (>0.1 m² and <1 m²)

Expand to show TLE details & history
Last TLE update: 1 year ago

TLE from 1 year ago
0 CZ-6A DEB
1 61140U 24140QJ  25077.91082931  .07107690  10870+0  33723-1 0  9991
2 61140  89.2833 332.3044 0018417 230.5413 129.4242 15.90391627 31118
Epoch: 2025-03-18T21:51Z
TLE epoch observation values (Epoch: 2025-03-18T21:51:35.652Z)
Latitude
-0.00002°
Longitude
-172.30067°
Altitude
312.307 km
Speed
7.716 km/s
True Right ascension
22h 09m 13s
True Declination
0° 00' 00"
Sunlit
Object was in daylight at epoch
Visualization orbit readout
Latitude
Unknown
Longitude
Unknown
Altitude
Unknown
Speed
Unknown
Apparent Right ascension
Unknown
Apparent Declination
Unknown
Sunlit
N/A
Visualization observer readout
Local Sidereal Time
10:20:29
Azimuth
Unknown
Elevation
Unknown
Doppler factor
Unknown
Orbital elements
Apogee altitude
310.191 km
Perigee altitude
285.601 km
Semi-major axis
6,676.033 km
Eccentricity
0.00184
Inclination
89.2833°
RAAN
332.3044°
Arg. of periapsis
230.5413°
True anomaly
129.58699°
Mean anomaly
129.4242°
Eccentric anomaly
129.50562°
Mean motion
3.97892 °/min
Orbital period
90.48 mins
BSTAR
0.033723
Loading maneuver chart data...
Computing Atmospheric mass density...
Loading historical data...
Loading historical data...
Loading historical data...
Loading historical data...
Loading historical data...
Loading historical data...
Loading historical data...

Documentation

Showing up to 5 results
|